Location: Bun Machan
(52.1403°N, 7.3744°W)
Time: 02:44:33
(UTC+00:00)

Cosmos 1605 Rocket - Pass Details

Date: 14 July 2020
Orbit: 944 x 1007 km, 82.9° (Epoch: 04 August)

Event Time Altitude Azimuth Distance (km) Brightness Sun altitude
Exits shadow 01:11:59 23° 190° (S) 1,945 4.9 -15.8°
Maximum altitude 01:16:06 88° 280° (W) 990 4.0 -15.7°
Drops below altitude 10° 01:22:23 10° 10° (N) 2,725 7.7 -15.5°
Sets 01:24:53 0° 11° (N) 3,667 8.9 -15.4°
